WD4IXD Weather Reports


time (UTC)temp
F
wind
direction
speed
knots
gust
knots
rain 1hr
in
rain 24hr
in
rain mn
in
humidity
%
barometer
mb
20260505153004 37 330 2.6 7.0 0.01 0.23 0.10 94 1015.8
20260505152515 37 336 2.6 7.0 0.01 0.23 0.10 94 1015.8
20260505152004 37 319 2.6 7.8 0.01 0.23 0.10 94 1015.9
20260505151514 37 339 3.5 7.8 0.01 0.23 0.10 94 1015.8
20260505151004 37 335 1.7 7.0 0.01 0.23 0.10 94 1015.8
20260505150515 37 320 1.7 6.1 0.01 0.23 0.10 94 1015.9
20260505140516 37 312 3.5 7.0 0.01 0.22 0.09 94 1016.1
20260505125004 38 330 7.0 12.2 0.03 0.20 0.07 93 1015.2
20260505124514 38 321 6.1 13.0 0.03 0.20 0.07 93 1015.0
20260505124003 38 331 6.1 12.2 0.04 0.20 0.07 93 1014.9
20260505123514 38 348 7.8 13.9 0.06 0.20 0.07 93 1014.8
20260505123004 38 357 8.7 14.8 0.07 0.20 0.07 93 1014.5
20260505122515 38 353 8.7 13.9 0.07 0.20 0.07 93 1014.3
20260505122004 38 330 8.7 14.8 0.07 0.20 0.07 93 1014.5
20260505121503 39 316 7.8 14.8 0.06 0.19 0.06 93 1014.6
20260505121015 39 319 7.8 14.8 0.06 0.19 0.06 93 1014.6
20260505120515 39 313 8.7 15.6 0.06 0.19 0.06 93 1014.5
20260505120004 39 320 8.7 13.9 0.05 0.18 0.05 93 1014.4
20260505115514 39 318 8.7 14.8 0.05 0.18 0.05 93 1014.4
20260505115004 39 329 7.8 12.2 0.04 0.17 0.04 93 1014.4
20260505114514 39 315 7.8 11.3 0.04 0.17 0.04 93 1014.4
20260505114003 39 327 8.7 13.9 0.03 0.16 0.03 93 1014.4
20260505113514 40 330 7.8 13.9 0.01 0.14 0.01 92 1014.3
20260505113004 40 334 7.8 13.9 0.00 0.13 0.00 92 1014.3
20260505112515 41 330 9.6 15.6 0.00 0.13 0.00 92 1014.3
20260505112003 41 311 8.7 17.4 0.00 0.13 0.00 93 1014.2
20260505111515 41 317 6.1 12.2 0.00 0.13 0.00 93 1014.2
20260505111003 41 321 6.1 13.0 0.00 0.13 0.00 93 1014.1
20260505110515 41 309 7.8 13.0 0.00 0.13 0.00 93 1014.0
20260505102004 43 336 10.4 15.6 0.00 0.13 0.00 92 1013.3
20260505101515 43 347 11.3 17.4 0.00 0.13 0.00 92 1012.9
20260505101004 43 343 7.8 14.8 0.00 0.13 0.00 92 1012.8
20260505100515 43 359 12.2 17.4 0.00 0.13 0.00 92 1012.5
20260505100015 44 350 7.8 13.9 0.00 0.13 0.00 92 1012.9
20260505095504 44 350 8.7 15.6 0.00 0.13 0.00 92 1012.9
20260505095015 45 350 8.7 15.6 0.00 0.13 0.00 91 1012.9
20260505094515 46 341 8.7 15.6 0.00 0.13 0.00 92 1012.9
20260505094003 47 352 7.0 13.9 0.00 0.13 0.00 93 1012.7
20260505093515 47 356 4.3 8.7 0.00 0.13 0.00 93 1012.7
20260505093004 47 356 4.3 8.7 0.00 0.13 0.00 93 1012.7
20260505092515 47 1 5.2 7.8 0.00 0.13 0.00 92 1012.8
20260505092004 47 357 3.5 8.7 0.00 0.13 0.00 92 1012.8
20260505091515 47 354 4.3 7.8 0.00 0.13 0.00 92 1012.8
20260505091004 47 1 4.3 7.8 0.00 0.13 0.00 92 1012.7
20260505090514 47 344 2.6 7.8 0.00 0.13 0.00 92 1012.7
20260505090004 47 340 2.6 5.2 0.00 0.13 0.00 92 1012.7
20260505085515 47 343 3.5 7.0 0.00 0.13 0.00 92 1012.6
20260505085004 47 350 0.9 2.6 0.00 0.13 0.00 92 1012.7
20260505084515 47 137 0.9 1.7 0.00 0.13 0.00 92 1012.7
20260505084003 47 137 0.0 0.0 0.00 0.13 0.00 92 1012.7
20260505083515 47 137 0.0 0.0 0.00 0.13 0.00 92 1012.7
20260505083004 47 137 0.0 0.0 0.00 0.13 0.00 92 1012.6
20260505082514 47 137 0.0 0.9 0.00 0.13 0.00 92 1012.6
20260505082004 47 137 0.0 0.9 0.00 0.13 0.00 92 1012.7
20260505081515 47 137 0.0 0.0 0.00 0.13 0.00 92 1012.8
20260505081003 47 137 1.7 2.6 0.00 0.13 0.00 92 1012.9
20260505080515 47 137 0.9 2.6 0.00 0.13 0.00 92 1012.9
20260505080004 47 137 0.9 2.6 0.00 0.13 0.00 92 1012.9
20260505075514 47 137 2.6 4.3 0.00 0.13 0.00 92 1012.9
20260505075004 47 137 1.7 2.6 0.00 0.13 0.00 92 1012.9
20260505074515 48 137 0.9 2.6 0.00 0.13 0.00 92 1013.0
20260505074003 48 125 1.7 4.3 0.00 0.13 0.00 92 1013.1
20260505073515 48 105 1.7 2.6 0.00 0.13 0.00 92 1013.1
20260505073004 48 115 1.7 2.6 0.00 0.13 0.00 92 1013.3
20260505072504 48 109 2.6 5.2 0.00 0.13 0.00 92 1013.3
20260505072015 48 114 2.6 5.2 0.00 0.13 0.00 92 1013.3
20260505071504 47 111 2.6 4.3 0.00 0.13 0.00 92 1013.3
20260505071003 47 139 2.6 4.3 0.00 0.13 0.00 92 1013.4
20260505070515 47 139 2.6 2.6 0.00 0.13 0.00 91 1013.4
20260505070004 48 139 1.7 2.6 0.00 0.13 0.00 91 1013.5
20260505065503 48 99 1.7 5.2 0.00 0.13 0.00 91 1013.5
20260505065004 48 99 3.5 5.2 0.00 0.13 0.00 91 1013.5
20260505064504 48 117 1.7 2.6 0.01 0.13 0.00 91 1013.6
20260505064003 48 104 2.6 6.1 0.01 0.13 0.00 91 1013.5
20260505063515 48 105 3.5 7.0 0.01 0.13 0.00 91 1013.6
20260505063004 48 100 0.9 2.6 0.01 0.13 0.00 91 1013.6
20260505062504 48 100 1.7 6.1 0.01 0.13 0.00 91 1013.6
20260505062015 48 110 2.6 6.1 0.01 0.13 0.00 91 1013.5
20260505061503 48 106 4.3 6.1 0.01 0.13 0.00 90 1013.6
20260505061015 48 107 3.5 5.2 0.01 0.13 0.00 90 1013.6
20260505060503 48 99 2.6 2.6 0.01 0.13 0.00 90 1013.7
20260505060015 48 302 1.7 2.6 0.01 0.13 0.00 90 1013.7
20260505055504 48 302 0.0 1.7 0.01 0.13 0.13 90 1013.8
20260505055014 48 302 0.9 1.7 0.01 0.13 0.13 90 1013.8
20260505054504 48 302 0.0 1.7 0.01 0.12 0.12 90 1013.8
20260505054015 48 302 0.0 0.0 0.01 0.12 0.12 89 1013.8
20260505053503 48 302 0.0 0.9 0.01 0.12 0.12 89 1013.6
20260505053015 48 302 0.0 0.0 0.02 0.12 0.12 89 1013.7
20260505052503 49 302 0.0 0.0 0.02 0.12 0.12 89 1013.8
20260505052015 49 302 0.0 0.0 0.02 0.12 0.12 89 1013.8
20260505051504 49 302 0.0 0.0 0.02 0.12 0.12 89 1013.8
20260505051003 49 302 0.0 0.0 0.02 0.12 0.12 88 1013.9
20260505050515 49 302 0.0 0.0 0.03 0.12 0.12 88 1014.0
20260505041504 49 327 4.3 7.8 0.10 0.10 0.10 85 1014.2
20260505041015 49 343 3.5 8.7 0.10 0.10 0.10 84 1014.2
20260505040515 49 334 4.3 10.4 0.09 0.09 0.09 83 1014.3
20260505040004 49 316 3.5 7.0 0.09 0.09 0.09 83 1014.1
20260505035515 50 326 2.6 5.2 0.08 0.08 0.08 82 1014.1
20260505035015 50 347 2.6 5.2 0.08 0.08 0.08 80 1014.0
20260505034503 50 351 2.6 7.8 0.06 0.06 0.06 79 1014.1
20260505034004 51 335 2.6 7.0 0.06 0.06 0.06 78 1014.0
20260505033515 51 250 6.1 10.4 0.04 0.04 0.04 76 1014.0
20260505033004 52 259 5.2 8.7 0.04 0.04 0.04 74 1013.9
20260505032515 52 271 4.3 10.4 0.03 0.03 0.03 71 1013.9
20260505032003 53 277 4.3 7.0 0.02 0.02 0.02 69 1013.9
20260505031515 53 258 5.2 10.4 0.00 0.00 0.00 67 1013.8
20260505031004 54 235 8.7 11.3 0.00 0.00 0.00 65 1013.6
20260505030515 54 239 10.4 12.2 0.00 0.00 0.00 64 1013.4
20260505030004 54 232 5.2 10.4 0.00 0.00 0.00 65 1013.2
20260505025514 54 218 2.6 4.3 0.00 0.00 0.00 65 1013.0
20260505025004 54 240 1.7 2.6 0.00 0.00 0.00 65 1013.0
20260505024515 54 240 0.9 2.6 0.00 0.00 0.00 65 1013.0
20260505024003 55 291 0.9 2.6 0.00 0.00 0.00 65 1012.8
20260505023515 55 291 0.0 1.7 0.00 0.00 0.00 64 1012.8
20260505023004 55 291 0.0 1.7 0.00 0.00 0.00 64 1012.7
20260505022515 55 291 0.9 1.7 0.00 0.00 0.00 64 1012.7
20260505022004 55 291 0.9 2.6 0.00 0.00 0.00 64 1012.6
20260505021515 55 298 0.9 2.6 0.00 0.00 0.00 63 1012.7
20260505021003 55 11 0.0 0.0 0.00 0.00 0.00 63 1012.5
20260505020504 55 11 0.0 0.0 0.00 0.00 0.00 63 1012.6
20260505020015 55 11 0.0 0.0 0.00 0.00 0.00 63 1012.6
20260505015503 55 11 0.0 0.9 0.00 0.00 0.00 63 1012.6
20260505015015 55 11 0.0 1.7 0.00 0.00 0.00 63 1012.5
20260505014504 55 11 0.9 2.6 0.00 0.00 0.00 63 1012.6
20260505014015 55 11 0.9 2.6 0.00 0.00 0.00 62 1012.2
20260505013503 55 10 2.6 4.3 0.00 0.00 0.00 62 1012.0
20260505013003 55 4 2.6 5.2 0.00 0.00 0.00 63 1012.2
20260505012504 56 339 1.7 2.6 0.00 0.00 0.00 63 1012.4
20260505012004 56 349 1.7 4.3 0.00 0.00 0.00 63 1012.4
20260505011503 56 358 1.7 4.3 0.00 0.00 0.00 64 1012.4
20260505011015 56 2 1.7 2.6 0.00 0.00 0.00 63 1012.4
20260505010504 56 11 1.7 4.3 0.00 0.00 0.00 62 1012.2
20260505010015 56 6 1.7 6.1 0.00 0.00 0.00 62 1012.2
20260505005515 57 318 2.6 11.3 0.00 0.00 0.00 62 1012.3
20260505005004 57 314 5.2 10.4 0.00 0.00 0.00 61 1012.3
20260505004504 58 294 7.8 13.0 0.00 0.00 0.00 58 1012.4
20260505004004 58 298 6.1 11.3 0.00 0.00 0.00 56 1012.3
20260505003504 59 286 6.1 10.4 0.00 0.00 0.00 54 1012.2
20260505003015 60 295 6.1 11.3 0.00 0.00 0.00 52 1012.3
20260505002514 61 306 9.6 14.8 0.00 0.00 0.00 47 1012.2
20260505002004 61 305 6.1 13.0 0.00 0.00 0.00 43 1012.2
20260505001515 62 291 6.1 11.3 0.00 0.00 0.00 41 1012.1
20260505001004 62 303 6.1 10.4 0.00 0.00 0.00 41 1012.0
20260505000515 62 309 7.8 10.4 0.00 0.00 0.00 40 1011.8
20260505000004 62 319 5.2 10.4 0.00 0.00 0.00 39 1011.8
20260504235515 62 315 5.2 10.4 0.00 0.00 0.00 39 1011.8
20260504235003 62 327 6.1 12.2 0.00 0.00 0.00 38 1011.7
20260504234515 62 312 6.1 12.2 0.00 0.00 0.00 38 1011.6
20260504234004 63 345 9.6 14.8 0.00 0.00 0.00 36 1011.5
20260504233503 63 346 8.7 14.8 0.00 0.00 0.00 36 1011.3
20260504233004 63 345 7.0 13.9 0.00 0.00 0.00 35 1011.1
20260504232515 64 0 9.6 17.4 0.00 0.00 0.00 35 1010.9
20260504232004 64 5 7.0 13.9 0.00 0.00 0.00 34 1010.7
20260504231515 64 355 7.0 13.9 0.00 0.00 0.00 34 1010.9
20260504231004 64 347 7.0 17.4 0.00 0.00 0.00 34 1010.7
20260504230515 64 335 5.2 10.4 0.00 0.00 0.00 33 1010.7
20260504230004 64 333 7.8 14.8 0.00 0.00 0.00 33 1010.5
20260504225503 64 348 10.4 14.8 0.00 0.00 0.00 32 1010.5
20260504225015 65 344 10.4 15.6 0.00 0.00 0.00 31 1010.4
20260504224503 65 353 10.4 14.8 0.00 0.00 0.00 31 1010.4
20260504224015 65 353 11.3 17.4 0.00 0.00 0.00 31 1010.5
20260504223515 66 0 12.2 20.0 0.00 0.00 0.00 30 1010.4
20260504223003 67 355 12.2 19.1 0.00 0.00 0.00 29 1010.3
20260504222515 69 1 12.2 17.4 0.00 0.00 0.00 27 1010.3
20260504222003 71 6 12.2 20.0 0.00 0.00 0.00 24 1010.2
20260504221515 72 35 4.3 10.4 0.00 0.00 0.00 21 1010.0
20260504221015 72 10 7.8 13.0 0.00 0.00 0.00 21 1010.0
20260504220503 73 28 4.3 7.8 0.00 0.00 0.00 21 1010.0
20260504220015 73 51 1.7 10.4 0.00 0.00 0.00 22 1010.0
20260504215504 73 11 5.2 8.7 0.00 0.00 0.00 22 1010.0
20260504215014 73 349 5.2 7.8 0.00 0.00 0.00 22 1010.1
20260504214504 73 357 5.2 11.3 0.00 0.00 0.00 22 1010.1
20260504214015 72 339 3.5 8.7 0.00 0.00 0.00 22 1010.1
20260504213503 72 29 5.2 10.4 0.00 0.00 0.00 22 1010.1
20260504213015 72 343 3.5 7.8 0.00 0.00 0.00 23 1010.2
20260504212503 72 324 5.2 10.4 0.00 0.00 0.00 23 1010.2
20260504212014 72 300 5.2 11.3 0.00 0.00 0.00 23 1010.3
20260504211504 72 330 4.3 10.4 0.00 0.00 0.00 23 1010.3
20260504211015 73 335 7.0 13.0 0.00 0.00 0.00 23 1010.3
20260504210504 73 345 8.7 17.4 0.00 0.00 0.00 23 1010.3
20260504210004 72 296 7.8 12.2 0.00 0.00 0.00 25 1010.4
20260504205514 71 307 5.2 10.4 0.00 0.00 0.00 23 1010.5
20260504205004 70 346 5.2 11.3 0.00 0.00 0.00 24 1010.5
20260504204515 70 357 7.8 13.0 0.00 0.00 0.00 25 1010.6
20260504204003 69 339 5.2 13.0 0.00 0.00 0.00 25 1010.7
20260504203515 69 9 6.1 13.0 0.00 0.00 0.00 25 1010.8
20260504203003 70 319 8.7 17.4 0.00 0.00 0.00 25 1010.8
20260504202515 70 328 9.6 13.9 0.00 0.00 0.00 24 1010.8
20260504202004 71 339 7.0 11.3 0.00 0.00 0.00 23 1010.8
20260504201515 71 326 8.7 13.9 0.00 0.00 0.00 23 1010.7
20260504201004 72 347 9.6 17.4 0.00 0.00 0.00 22 1010.7
20260504200504 74 339 8.7 15.6 0.00 0.00 0.00 21 1010.7
20260504200004 75 326 10.4 14.8 0.00 0.00 0.00 21 1010.8
20260504195515 76 335 8.7 13.9 0.00 0.00 0.00 20 1010.7
20260504195004 76 289 4.3 10.4 0.00 0.00 0.00 20 1010.8
20260504194515 75 322 4.3 7.8 0.00 0.00 0.00 21 1010.9
20260504194004 75 311 7.0 12.2 0.00 0.00 0.00 21 1010.9
20260504193515 75 307 7.0 13.0 0.00 0.00 0.00 22 1010.8
20260504193004 74 330 7.0 11.3 0.00 0.00 0.00 22 1010.9
20260504192515 74 304 7.8 12.2 0.00 0.00 0.00 22 1010.9
20260504192004 74 303 8.7 13.0 0.00 0.00 0.00 23 1010.9
20260504191515 73 313 9.6 14.8 0.00 0.00 0.00 24 1010.9
20260504191003 72 316 8.7 19.1 0.00 0.00 0.00 24 1010.9
20260504190504 72 317 7.8 17.4 0.00 0.00 0.00 23 1010.9
20260504190004 73 327 10.4 17.4 0.00 0.00 0.00 23 1011.0
20260504185515 74 338 11.3 17.4 0.00 0.00 0.00 22 1011.0
20260504185004 74 306 11.3 18.2 0.00 0.00 0.00 23 1010.9
20260504184504 73 302 13.9 21.7 0.00 0.00 0.00 24 1010.8
20260504184004 71 340 7.8 12.2 0.00 0.00 0.00 22 1011.0
20260504183515 71 318 8.7 15.6 0.00 0.00 0.00 22 1011.0
20260504183015 70 339 8.7 13.9 0.00 0.00 0.00 23 1010.9
20260504182504 70 355 10.4 17.4 0.00 0.00 0.00 23 1010.8
20260504182004 69 348 8.7 14.8 0.00 0.00 0.00 24 1010.8
20260504181515 68 350 6.1 13.0 0.00 0.00 0.00 26 1010.8
20260504181015 67 358 6.1 13.9 0.00 0.00 0.00 26 1010.7
20260504180504 68 336 7.8 15.6 0.00 0.00 0.00 30 1010.7
20260504180014 69 313 9.6 17.4 0.00 0.00 0.00 26 1010.8
20260504175504 69 2 3.5 10.4 0.00 0.00 0.00 21 1010.7
20260504175015 69 138 7.0 21.7 0.00 0.00 0.00 21 1010.8
20260504174504 71 100 2.6 7.0 0.00 0.00 0.00 18 1010.8
20260504174015 72 84 1.7 2.6 0.00 0.00 0.00 18 1010.8
20260504173515 72 102 4.3 6.1 0.00 0.00 0.00 18 1010.8
20260504173004 72 105 1.7 2.6 0.00 0.00 0.00 19 1010.9
20260504172515 73 106 1.7 7.8 0.00 0.00 0.00 19 1011.0
20260504172004 73 123 2.6 7.8 0.00 0.00 0.00 19 1011.1
20260504171515 74 195 4.3 11.3 0.00 0.00 0.00 17 1011.3
20260504171004 75 290 7.0 10.4 0.00 0.00 0.00 17 1011.2
20260504170515 76 280 8.7 12.2 0.00 0.00 0.00 17 1011.2